EW8016 Weather Reports


Display with metric or nautical units.
time (UTC)temp
F
wind
direction
speed
MPH
gust
MPH
rain 1hr
in
rain 24hr
in
rain mn
in
humidity
%
barometer
mb
20260503054505 58 0 0.0 0.0 0.00 0.08 0.08 97 1011.4
20260503054004 58 0 0.0 0.0 0.00 0.08 0.08 96 1011.6
20260503053508 58 0 0.0 0.0 0.00 0.08 0.08 96 1011.6
20260503053003 58 0 0.0 0.0 0.00 0.08 0.08 96 1011.6
20260503052505 58 0 0.0 0.0 0.00 0.08 0.08 96 1011.7
20260503052008 57 0 0.0 0.0 0.00 0.08 0.08 96 1011.7
20260503051503 57 0 0.0 0.0 0.00 0.08 0.08 96 1011.8
20260503051219 57 0 0.0 0.0 0.00 0.08 0.08 96 1011.8
20260503050510 57 0 0.0 0.0 0.00 0.08 0.08 96 1011.7
20260503050005 57 0 0.0 0.0 0.00 0.08 0.08 95 1011.7
20260503045505 57 0 0.0 0.0 0.00 0.08 0.08 95 1011.6
20260503045005 57 0 0.0 0.0 0.00 0.08 0.08 96 1011.5
20260503044503 57 0 0.0 0.0 0.00 0.08 0.08 95 1011.5
20260503044004 57 0 0.0 0.0 0.00 0.08 0.08 95 1011.6
20260503043503 57 0 0.0 0.0 0.01 0.08 0.08 95 1011.5
20260503043008 57 0 0.0 0.0 0.01 0.08 0.08 95 1011.6
20260503042503 57 0 0.0 0.0 0.01 0.08 0.08 95 1011.5
20260503042007 57 0 0.0 0.0 0.01 0.08 0.08 95 1011.5
20260503041507 57 0 0.0 0.0 0.01 0.08 0.08 95 1011.6
20260503041008 57 0 0.0 0.0 0.01 0.08 0.08 95 1011.5
20260503040721 57 0 0.0 0.0 0.01 0.08 0.08 95 1011.7
20260503040218 57 0 0.0 0.0 0.01 0.08 0.08 95 1011.6
20260503035503 57 0 0.0 0.0 0.01 0.08 0.08 95 1011.6
20260503035005 57 0 0.0 0.0 0.01 0.08 0.08 95 1011.7
20260503034504 57 0 0.0 0.0 0.01 0.08 0.08 95 1011.7
20260503034004 57 0 0.0 0.0 0.01 0.08 0.08 95 1011.8
20260503033505 57 0 0.0 0.0 0.00 0.07 0.07 95 1011.8
20260503033004 57 0 0.0 0.0 0.00 0.07 0.07 94 1011.7
20260503032503 58 0 0.0 0.0 0.00 0.07 0.07 94 1011.7
20260503032006 58 0 0.0 0.0 0.00 0.07 0.07 94 1011.8
20260503031503 58 0 0.0 0.0 0.00 0.07 0.07 95 1011.9
20260503031004 58 0 0.0 0.0 0.00 0.07 0.07 94 1011.8
20260503030504 58 0 0.0 0.0 0.00 0.07 0.07 94 1011.9
20260503030005 58 0 0.0 0.0 0.00 0.07 0.07 94 1011.9
20260503025503 58 126 0.0 3.0 0.02 0.07 0.07 94 1011.9
20260503025220 58 116 0.0 3.0 0.03 0.07 0.07 94 1011.8
20260503024503 58 118 1.0 4.0 0.04 0.07 0.07 94 1012.0
20260503024003 58 123 1.0 4.0 0.05 0.07 0.07 94 1011.9
20260503023718 58 124 1.0 4.0 0.05 0.07 0.07 94 1012.0
20260503023003 58 124 1.0 6.0 0.06 0.07 0.07 94 1012.0
20260503022505 58 113 1.0 6.0 0.06 0.07 0.07 94 1012.2
20260503022004 58 124 0.0 3.0 0.06 0.07 0.07 94 1012.2
20260503021505 58 124 0.0 3.0 0.06 0.07 0.07 94 1012.4
20260503021005 58 106 0.0 2.0 0.06 0.07 0.07 94 1012.5
20260503020504 58 99 0.0 2.0 0.06 0.07 0.07 93 1012.5
20260503020005 58 132 0.0 2.0 0.06 0.07 0.07 94 1012.5
20260503015505 58 180 0.0 2.0 0.03 0.05 0.05 93 1012.7
20260503015004 58 181 0.0 2.0 0.02 0.03 0.03 93 1013.0
20260503014720 58 160 1.0 5.0 0.02 0.03 0.03 93 1013.1
20260503014221 58 158 1.0 6.0 0.02 0.03 0.03 93 1013.2
20260503013505 58 0 0.0 0.0 0.00 0.02 0.02 93 1013.3
20260503013003 58 0 0.0 0.0 0.00 0.02 0.02 93 1013.2
20260503012504 58 0 0.0 0.0 0.00 0.02 0.02 92 1013.2
20260503012003 58 0 0.0 0.0 0.00 0.02 0.02 92 1013.2
20260503011504 58 0 0.0 0.0 0.00 0.02 0.02 92 1013.1
20260503011004 58 0 0.0 0.0 0.00 0.02 0.02 92 1013.1
20260503010505 58 0 0.0 0.0 0.00 0.02 0.02 92 1013.2
20260503010006 58 0 0.0 0.0 0.00 0.02 0.02 92 1013.2
20260503005503 58 0 0.0 0.0 0.00 0.02 0.02 91 1013.1
20260503005003 59 0 0.0 0.0 0.00 0.02 0.02 91 1013.1
20260503004511 59 0 0.0 0.0 0.00 0.02 0.02 91 1013.0
20260503004219 59 123 0.0 2.0 0.00 0.02 0.02 91 1013.0
20260503003503 59 123 0.0 3.0 0.00 0.02 0.02 91 1013.1
20260503003003 59 123 1.0 3.0 0.00 0.02 0.02 91 1013.1
20260503002508 59 130 1.0 4.0 0.00 0.02 0.02 90 1013.2
20260503002003 60 136 1.0 4.0 0.00 0.02 0.02 90 1013.2
20260503001508 60 0 0.0 0.0 0.01 0.02 0.02 90 1013.3
20260503001003 60 0 0.0 0.0 0.01 0.02 0.02 90 1013.2
20260503000718 60 0 0.0 0.0 0.01 0.02 0.02 90 1013.3
20260503000006 60 145 0.0 4.0 0.02 0.02 0.02 90 1013.5
20260502235505 60 145 0.0 4.0 0.02 0.02 0.02 90 1013.9
20260502235006 60 138 0.0 1.0 0.02 0.02 0.02 89 1013.9
20260502234504 60 140 1.0 2.0 0.02 0.02 0.02 89 1014.1
20260502234003 60 147 1.0 4.0 0.02 0.02 0.02 89 1014.2
20260502233506 61 148 1.0 4.0 0.02 0.02 0.02 89 1014.4
20260502233218 61 148 1.0 5.0 0.02 0.02 0.02 89 1014.5
20260502232505 61 148 2.0 6.0 0.02 0.02 0.02 88 1014.6
20260502232005 61 149 2.0 6.0 0.02 0.02 0.02 88 1014.6
20260502231503 61 157 3.0 7.0 0.01 0.01 0.01 87 1014.8
20260502231003 62 163 3.0 7.0 0.01 0.01 0.01 87 1014.8
20260502230505 62 163 2.0 6.0 0.01 0.01 0.01 87 1014.9
20260502230006 62 148 3.0 7.0 0.00 0.00 0.00 86 1014.6
20260502225503 62 151 4.0 7.0 0.00 0.00 0.00 85 1014.5
20260502225003 62 160 3.0 7.0 0.00 0.00 0.00 86 1014.7
20260502224505 62 159 2.0 5.0 0.00 0.00 0.00 86 1014.6
20260502224218 62 160 2.0 5.0 0.00 0.00 0.00 86 1014.6
20260502223719 62 156 1.0 5.0 0.00 0.00 0.00 85 1014.3
20260502223005 63 0 0.0 0.0 0.00 0.00 0.00 84 1013.8
20260502222503 63 0 0.0 0.0 0.00 0.00 0.00 84 1013.5
20260502222008 63 0 0.0 0.0 0.00 0.00 0.00 83 1013.5
20260502221503 63 0 0.0 0.0 0.00 0.00 0.00 83 1013.5
20260502221005 63 0 0.0 0.0 0.00 0.00 0.00 82 1013.4
20260502220505 63 0 0.0 0.0 0.00 0.00 0.00 82 1013.4
20260502220004 63 0 0.0 0.0 0.00 0.00 0.00 82 1013.5
20260502215506 64 0 0.0 0.0 0.00 0.00 0.00 82 1013.5
20260502215004 64 0 0.0 0.0 0.00 0.00 0.00 81 1013.7
20260502214505 64 0 0.0 0.0 0.00 0.00 0.00 81 1013.8
20260502214003 65 0 0.0 0.0 0.00 0.00 0.00 81 1014.0
20260502213504 65 142 0.0 2.0 0.00 0.00 0.00 80 1014.0
20260502213006 65 128 1.0 6.0 0.00 0.00 0.00 80 1014.0
20260502212716 65 130 1.0 6.0 0.00 0.00 0.00 79 1014.0
20260502212003 66 134 2.0 6.0 0.00 0.00 0.00 77 1014.2
20260502211505 66 131 1.0 6.0 0.00 0.00 0.00 77 1014.3
20260502211003 66 137 3.0 8.0 0.00 0.00 0.00 76 1014.4
20260502210505 66 138 4.0 8.0 0.00 0.00 0.00 76 1014.6
20260502210005 66 142 5.0 12.0 0.00 0.00 0.00 76 1014.7
20260502205503 66 144 4.0 12.0 0.00 0.00 0.00 76 1014.9
20260502205003 66 147 2.0 5.0 0.00 0.00 0.00 77 1015.0
20260502204504 66 139 1.0 5.0 0.00 0.00 0.00 77 1014.8
20260502204004 66 109 1.0 4.0 0.00 0.00 0.00 77 1014.9
20260502203503 67 118 2.0 5.0 0.00 0.00 0.00 77 1014.9
20260502203004 67 124 3.0 9.0 0.00 0.00 0.00 77 1014.9
20260502202718 67 127 3.0 11.0 0.00 0.00 0.00 77 1014.9
20260502202223 66 131 4.0 11.0 0.00 0.00 0.00 77 1014.9
20260502201504 66 150 5.0 10.0 0.00 0.00 0.00 76 1015.3
20260502201003 67 155 2.0 10.0 0.00 0.00 0.00 74 1015.2
20260502200503 67 142 0.0 3.0 0.00 0.00 0.00 74 1014.8
20260502200219 67 0 0.0 0.0 0.00 0.00 0.00 73 1014.5
20260502195508 67 11 0.0 2.0 0.00 0.00 0.00 73 1014.6
20260502195008 67 11 0.0 3.0 0.00 0.00 0.00 72 1014.6
20260502194718 67 11 1.0 3.0 0.00 0.00 0.00 72 1014.6
20260502194221 68 350 1.0 4.0 0.00 0.00 0.00 71 1014.6
20260502193503 68 335 1.0 4.0 0.00 0.00 0.00 70 1014.5
20260502193005 68 337 1.0 4.0 0.00 0.00 0.00 70 1014.4
20260502192503 69 340 2.0 5.0 0.00 0.00 0.00 69 1014.5
20260502192005 69 348 2.0 5.0 0.00 0.00 0.00 68 1014.4
20260502191503 70 354 2.0 5.0 0.00 0.00 0.00 66 1014.3
20260502191003 70 351 2.0 8.0 0.00 0.00 0.00 65 1014.4
20260502190505 71 341 3.0 8.0 0.00 0.00 0.00 63 1014.4
20260502190003 71 341 2.0 8.0 0.00 0.00 0.00 61 1014.3
20260502185503 72 355 0.0 8.0 0.00 0.00 0.00 59 1014.1
20260502185004 72 0 0.0 0.0 0.00 0.00 0.00 58 1014.2
20260502184503 72 0 0.0 0.0 0.00 0.00 0.00 58 1014.2
20260502184218 72 0 0.0 0.0 0.00 0.00 0.00 57 1014.2
20260502183504 73 0 0.0 0.0 0.00 0.00 0.00 57 1014.3
20260502183003 73 0 0.0 0.0 0.00 0.00 0.00 56 1014.3
20260502182717 73 229 0.0 1.0 0.00 0.00 0.00 56 1014.3
20260502182003 73 284 1.0 4.0 0.00 0.00 0.00 56 1014.3
20260502181504 74 291 1.0 4.0 0.00 0.00 0.00 56 1014.3
20260502181003 74 291 1.0 4.0 0.00 0.00 0.00 55 1014.3
20260502180505 74 286 2.0 4.0 0.00 0.00 0.00 55 1014.2
20260502170505 78 198 3.0 7.0 0.00 0.00 0.00 49 1014.5
20260502164006 78 179 2.0 6.0 0.00 0.00 0.00 50 1014.8
20260502163506 78 163 2.0 5.0 0.00 0.00 0.00 50 1014.8
20260502163217 78 150 2.0 6.0 0.00 0.00 0.00 51 1014.8
20260502162510 77 163 2.0 10.0 0.00 0.00 0.00 50 1015.0
20260502162003 77 164 2.0 7.0 0.00 0.00 0.00 51 1015.0
20260502161716 77 161 3.0 7.0 0.00 0.00 0.00 51 1015.1
20260502161224 77 166 3.0 10.0 0.00 0.00 0.00 52 1015.1
20260502160503 77 154 4.0 10.0 0.00 0.00 0.00 50 1015.2
20260502152217 77 228 3.0 9.0 0.00 0.00 0.00 49 1015.6
20260502151504 77 244 3.0 10.0 0.00 0.00 0.00 49 1015.6
20260502151005 78 226 3.0 10.0 0.00 0.00 0.00 48 1015.7
20260502150503 78 193 3.0 9.0 0.00 0.00 0.00 48 1015.8
20260502130503 77 244 6.0 14.0 0.00 0.00 0.00 48 1017.1
20260502123505 77 210 6.0 14.0 0.00 0.00 0.00 48 1017.3
20260502123006 77 223 5.0 14.0 0.00 0.00 0.00 48 1017.4
20260502122503 77 191 5.0 12.0 0.00 0.00 0.00 48 1017.4
20260502122003 77 183 4.0 11.0 0.00 0.00 0.00 48 1017.4
20260502121507 77 172 5.0 13.0 0.00 0.00 0.00 48 1017.4
20260502121007 77 168 7.0 15.0 0.00 0.00 0.00 47 1017.6
20260502120503 78 170 5.0 15.0 0.00 0.00 0.00 46 1017.6
20260502115505 77 231 5.0 14.0 0.00 0.00 0.00 47 1017.6
20260502115004 77 245 6.0 14.0 0.00 0.00 0.00 47 1017.6
20260502114503 77 206 5.0 13.0 0.00 0.00 0.00 48 1017.7
20260502114003 77 186 6.0 13.0 0.00 0.00 0.00 47 1017.7
20260502113503 78 201 6.0 13.0 0.00 0.00 0.00 46 1017.8
20260502113005 78 208 6.0 12.0 0.00 0.00 0.00 46 1017.7
20260502112504 77 188 6.0 12.0 0.00 0.00 0.00 46 1017.8
20260502112004 77 176 6.0 13.0 0.00 0.00 0.00 47 1017.8
20260502111717 77 172 6.0 13.0 0.00 0.00 0.00 46 1017.8
20260502111220 77 179 6.0 13.0 0.00 0.00 0.00 46 1017.9
20260502110504 77 193 5.0 13.0 0.00 0.00 0.00 46 1017.8
20260502110218 77 201 5.0 11.0 0.00 0.00 0.00 46 1017.9
20260502105504 77 194 5.0 15.0 0.00 0.00 0.00 46 1017.8
20260502105006 76 167 6.0 15.0 0.00 0.00 0.00 46 1017.9
20260502104503 77 173 6.0 13.0 0.00 0.00 0.00 46 1018.0
20260502104004 77 173 6.0 12.0 0.00 0.00 0.00 44 1018.1
20260502103504 77 168 6.0 12.0 0.00 0.00 0.00 44 1018.1
20260502103005 76 183 6.0 17.0 0.00 0.00 0.00 43 1018.2
20260502102503 76 188 5.0 17.0 0.00 0.00 0.00 42 1018.2
20260502102008 76 178 4.0 11.0 0.00 0.00 0.00 42 1018.2
20260502101505 76 169 4.0 11.0 0.00 0.00 0.00 42 1018.2
20260502101009 75 184 4.0 9.0 0.00 0.00 0.00 42 1018.3
20260502100720 75 210 4.0 11.0 0.00 0.00 0.00 41 1018.2
20260502091503 72 179 3.0 9.0 0.00 0.00 0.00 46 1018.5
20260502091003 71 183 3.0 8.0 0.00 0.00 0.00 46 1018.5
20260502090504 70 167 5.0 11.0 0.00 0.00 0.00 46 1018.5
20260502071504 64 163 4.0 7.0 0.00 0.00 0.00 54 1018.8
20260502071003 64 154 4.0 9.0 0.00 0.00 0.00 55 1019.0
20260502070503 63 158 4.0 9.0 0.00 0.00 0.00 56 1018.9
20260502070218 63 160 5.0 9.0 0.00 0.00 0.00 56 1019.0
20260502065719 62 157 5.0 8.0 0.00 0.00 0.00 57 1018.9
20260502065007 61 154 6.0 11.0 0.00 0.00 0.00 58 1018.9
20260502064508 61 156 5.0 11.0 0.00 0.00 0.00 59 1019.0
20260502064004 60 156 5.0 11.0 0.00 0.00 0.00 60 1019.1
20260502063719 60 156 5.0 11.0 0.00 0.00 0.00 60 1019.0
20260502063005 59 160 5.0 10.0 0.00 0.00 0.00 62 1019.0
20260502062504 58 162 5.0 9.0 0.00 0.00 0.00 63 1019.0
20260502062005 58 160 4.0 9.0 0.00 0.00 0.00 64 1019.1
20260502061717 57 159 5.0 9.0 0.00 0.00 0.00 64 1019.0
20260502061005 56 150 4.0 8.0 0.00 0.00 0.00 66 1019.0
20260502060504 55 156 4.0 8.0 0.00 0.00 0.00 68 1019.0
20260502060003 55 151 3.0 7.0 0.00 0.00 0.00 68 1018.9